{"data":{"norad_id":46796,"epoch":"2026-05-25T00:00:02.000160Z","epoch_age_seconds":74942,"freshness":"FRESH","line1":"1 46796U 20074BK  26145.00002315  .00129851  00000+0  61193-3 0  9992","line2":"2 46796  53.0394 251.8311 0005562 301.2980 243.6128 15.82208193  6001","mean_motion":15.82208193,"eccentricity":0.0005562,"inclination_deg":53.0394,"raan_deg":251.8311,"arg_perigee_deg":301.298,"mean_anomaly_deg":243.6128,"bstar":0.00061193,"rev_number":600,"period_min":91.012042939156,"perigee_km":320.46950455609,"apogee_km":327.92518127916,"semimajor_km":6702.3343429176,"source":"CELESTRAK","updated_at":"2026-05-25T13:38:16.520841Z"}}